Regional Weather Roundup
Issued by NWS

Home | Current Version | Previous Version | Text Only | Print | Product List | Glossary On
Versions: 1 2 3 4 5 6 7 8 9 10 11 12 13 14 15 16 17 18 19 20 21 22 23 24 25 26 27 28 29 30 31 32 33 34 35 36 37 38 39 40 41 42 43 44 45 46 47 48 49 50
000
ASUS43 KMPX 231610
RWRMN
WEATHER ROUNDUP FOR MINNESOTA
NATIONAL WEATHER SERVICE TWIN CITIES/CHANHASSEN MN
1100 AM CDT THU OCT 23 2014


NOTE: "FAIR" INDICATES FEW OR NO CLOUDS BELOW 12,000 FEET WITH NO
SIGNIFICANT WEATHER AND/OR OBSTRUCTIONS TO VISIBILITY. N/A MEANS
CURRENT SKY AND/OR WEATHER CONDITIONS ARE NOT AVAILABLE.

MNZ060>063-068>070-231700-
   Twin Cities Metro

CITY           SKY/WX    TMP DP  RH WIND       PRES   REMARKS
TWIN CITIES    CLOUDY    57  52  83 SW8       30.01R
ST PAUL        CLOUDY    54  51  90 SE3       30.02R
CRYSTAL        CLOUDY    57  52  83 SW7       29.99S
BLAINE         CLOUDY    57  54  88 SW7       30.00R
LAKEVILLE      CLOUDY    54  52  94 SW3       30.01R
EDEN PRAIRIE   CLOUDY    57  52  83 SW10      30.00R
SOUTH ST PAUL  CLOUDY    55  51  88 CALM      30.00S
LAKE ELMO      CLOUDY    54  52  94 S5        30.02R FOG
$$
MNZ001>005-007-008-013>017-022>024-027-028-231700-
   Northwest Minnesota

CITY           SKY/WX    TMP DP  RH WIND       PRES   REMARKS
BEMIDJI        SUNNY     56  47  72 S8        29.91S
HALLOCK        SUNNY     54  45  71 SW9       29.83S
ROSEAU         MOSUNNY   55  48  76 SW13      29.84S
WARROAD        SUNNY     55  48  76 SW12      29.84S
THIEF RVR FALL SUNNY     52  43  71 SW9       29.89R
CROOKSTON      SUNNY     52  45  76 S8        29.90R
FOSSTON        SUNNY     52  46  82 S12       29.92R
DETROIT LAKES  SUNNY     52  45  76 S7        29.95S
MOORHEAD       SUNNY     52  46  82 S7        29.94S
PARK RAPIDS    PTSUNNY   50  48  93 SW8       29.95R
MAHNOMEN       FAIR      52  45  77 S10       29.92S
$$
MNZ006-009>011-018-025>026-231700-
   North Central Minnesota

CITY           SKY/WX    TMP DP  RH WIND       PRES   REMARKS
BAUDETTE       SUNNY     56  46  69 S13       29.85F
FLAG ISLAND    CLOUDY    50  46  87 SE6       29.82S
INTL FALLS     CLOUDY    54  49  83 S6        29.88F
WASKISH        SUNNY     57  48  72 CALM      29.88F
BIG FORK       MOSUNNY   55  50  82 S9        29.92S
LONGVILLE      CLOUDY    52  50  93 S5        29.95S
GRAND RAPIDS   CLOUDY    50  46  87 S8        29.95S
CRANE LAKE     CLOUDY    50  46  87 S5        29.93F
ORR            CLOUDY    52  46  82 S7        29.90S
COOK           CLOUDY    50  46  87 SW7       29.94S
WALKER         FAIR      52  48  86 S7        29.93S
$$
MNZ012-019>021-037-231700-
   Northeast Minnesota

CITY           SKY/WX    TMP DP  RH WIND       PRES   REMARKS
DULUTH         FOG       49  47  93 SW9       29.96S VSB 1/2
ELY            CLOUDY    46  46 100 SW8       29.95S
HIBBING        CLOUDY    50  48  93 SW5       29.95S
EVELETH        CLOUDY    48  46  93 SW7       29.96S FOG
DULUTH HARBOR  CLOUDY    52  48  87 SW9       29.98S
TWO HARBORS    HAZE      52  39  62 SW3       29.95F VSB 1/2
SILVER BAY     CLOUDY    48  46  93 SE3       29.96S FOG
GRAND MARAIS     N/A     49  46  90 W5        29.99S
G MARAIS ARPRT FOG       45  41  87 S6        29.98S VSB 1/2
$$
MNZ029>031-032-039>041-046>048-054>057-064-231700-
   West Central Minnesota

CITY           SKY/WX    TMP DP  RH WIND       PRES   REMARKS
FERGUS FALLS   SUNNY     54  43  66 S5        29.97S
WHEATON        SUNNY     55  45  67 SW6       29.98S
MORRIS         SUNNY     54  48  82 SW3       29.97S
ALEXANDRIA     SUNNY     53  47  79 SW8       29.98S
ELBOW LAKE     FAIR      52  46  79 SW5       29.97S
WADENA         MOSUNNY   50  48  93 W5        29.95F
GLENWOOD       SUNNY     55  48  76 SW5       29.99R
APPLETON       SUNNY     55  46  71 SW5       29.99R
BENSON         SUNNY     54  48  82 SW3       29.99S
ORTONVILLE     SUNNY     57  46  67 SW3       29.98R
MADISON        SUNNY     63  48  59 W7        29.99S
WILLMAR        FAIR      55  48  76 SW7       30.01S
$$
MNZ033>034-036-042>043-049>051-058-059-231700-
   Central Minnesota

CITY           SKY/WX    TMP DP  RH WIND       PRES   REMARKS
ST CLOUD       CLOUDY    52  50  93 SW8       30.00R FOG
SAUK CENTRE    FAIR      52  50  92 SW3       29.98S
PAYNESVILLE    MOSUNNY   49  49 100 SE3       29.99S
AITKIN         CLOUDY    55  48  76 SW5       29.95S
PINE RIVER     CLOUDY    52  52 100 S7        29.99S
BRAINERD       CLOUDY    52  50  93 SW7       29.97S
STAPLES        CLOUDY    48  48 100 S5        29.96S
LONG PRAIRIE   CLOUDY    50  50 100 S6        29.98S
LITTLE FALLS   CLOUDY    50  46  87 CALM      29.99R FOG
LITCHFIELD     SUNNY     55  55 100 W5        30.00S
BUFFALO        CLOUDY    53  50  91 SW5       30.01S
MAPLE LAKE     CLOUDY    53  52  98 S5        30.01S FOG
$$
MNZ037-044-045-052-053-231700-
   East Central Minnesota

CITY           SKY/WX    TMP DP  RH WIND       PRES   REMARKS
PRINCETON      CLOUDY    55  54  94 SW3       30.00R FOG
MORA           CLOUDY    50  50 100 SW6       30.00S FOG
CAMBRIDGE      CLOUDY    55  48  76 SW3       29.98S HAZE
RUSH CITY      CLOUDY    52  51  97 CALM      30.00S
MOOSE LAKE     CLOUDY    50  50 100 SW7       29.96S FOG
HINCKLEY       CLOUDY    52  52 100 S8        29.99S FOG
CLOQUET        CLOUDY    48  48 100 S8        29.96F FOG
MCGREGOR       CLOUDY    52  50  93 SW7       29.97S
$$
MNZ071>073-080-081-089-090-097-098-231700-
   Southwest Minnesota

CITY           SKY/WX    TMP DP  RH WIND       PRES   REMARKS
MONTEVIDEO     SUNNY     57  55  94 CALM      30.01S
GRANITE FALLS  SUNNY     54  49  83 SW3       30.03R
CANBY          SUNNY     60  49  67 SW8       30.01R
MARSHALL       SUNNY     61  46  59 W10       30.00S
REDWOOD FALLS  SUNNY     57  49  74 MISG      30.01R
OLIVIA         SUNNY     57  52  82 W6        30.00S
PIPESTONE      MOSUNNY   52  50  93 CALM      30.03S
WINDOM         MOSUNNY   55  52  88 SW9       30.03S
WORTHINGTON    SUNNY     57  48  72 W9        30.04S
JACKSON        PTSUNNY   54  52  94 SW8       30.04S
TRACY          SUNNY     61  50  68 SW9       30.02R
SLAYTON        SUNNY     57  48  71 W8        30.04S
$$
MNZ065>067-074>077-082>085-091>093-231700-
   South Central Minnesota

CITY           SKY/WX    TMP DP  RH WIND       PRES   REMARKS
MANKATO        CLOUDY    55  48  76 W6        30.02S
NEW ULM        SUNNY     54  54 100 SW6       30.01S
ST JAMES       SUNNY     57  54  88 SW6       30.03R
FAIRMONT       PTSUNNY   54  48  82 SW6       30.03S
GLENCOE        CLOUDY    53  53 100 SW5       30.00S FOG
FARIBAULT      CLOUDY    54  54 100 SW6       30.02R FOG
OWATONNA       CLOUDY    54  52  94 S6        30.02R FOG
WASECA         CLOUDY    54  50  87 SW3       30.03S
ALBERT LEA     CLOUDY    54  52  94 S6        30.02S FOG
$$
MNZ078>079-086>088-094>096-231700-
   Southeast Minnesota

CITY           SKY/WX    TMP DP  RH WIND       PRES   REMARKS
ROCHESTER      CLOUDY    49  48  97 S9        30.04F FOG
STANTON        CLOUDY    54  51  90 SW5       30.00S FOG
DODGE CENTER   CLOUDY    52  50  93 S8        30.02F FOG
WINONA         CLOUDY    50  46  87 SE5       30.05F
AUSTIN         CLOUDY    50  48  93 S6        30.03F FOG
PRESTON        CLOUDY    47  46  95 S5        30.05S FOG
$$
ABBREVIATIONS USED IN REMARKS
   TC - TEMPERATURES IN CELSIUS
  WCI - WIND CHILL INDEX
   HX - HEAT INDEX
  VSB - VISIBILITY
$$



USA.gov is the U.S. government's official web portal to all federal, state and local government web resources and services.